| time (UTC) | temp C | wind direction | speed KPH | gust KPH | rain 1hr cm | rain 24hr cm | rain mn cm | humidity % | barometer mb |
| 20260504173530 | 17 | 229 | 17.7 | 29.0 | 0.00 | 0.00 | 0.00 | 42 | 1005.4 |
| 20260504173053 | 16 | 271 | 12.9 | 27.4 | 0.00 | 0.00 | 0.00 | 45 | 1005.4 |
| 20260504172532 | 16 | 296 | 12.9 | 25.7 | 0.00 | 0.00 | 0.00 | 45 | 1005.4 |
| 20260504172029 | 16 | 251 | 11.3 | 35.4 | 0.00 | 0.00 | 0.00 | 43 | 1005.3 |
| 20260504171540 | 17 | 271 | 9.7 | 35.4 | 0.00 | 0.00 | 0.00 | 44 | 1005.3 |
| 20260504171030 | 17 | 200 | 16.1 | 27.4 | 0.00 | 0.00 | 0.00 | 43 | 1005.2 |
| 20260504170532 | 16 | 214 | 16.1 | 29.0 | 0.00 | 0.00 | 0.00 | 44 | 1005.4 |
| 20260504151032 | 15 | 305 | 16.1 | 37.0 | 0.00 | 0.00 | 0.00 | 43 | 1006.2 |
| 20260504150529 | 15 | 206 | 16.1 | 30.6 | 0.00 | 0.00 | 0.00 | 44 | 1006.2 |
| 20260504141031 | 13 | 271 | 14.5 | 38.6 | 0.00 | 0.00 | 0.00 | 47 | 1006.4 |
| 20260504140529 | 13 | 234 | 14.5 | 25.7 | 0.00 | 0.00 | 0.00 | 48 | 1006.3 |
| 20260504130530 | 11 | 221 | 6.4 | 20.9 | 0.00 | 0.00 | 0.00 | 58 | 1007.0 |
| 20260504120107 | 8 | 221 | 6.4 | 19.3 | 0.00 | 0.00 | 0.00 | 62 | 1007.4 |
| 20260504110529 | 7 | 237 | 4.8 | 19.3 | 0.00 | 0.00 | 0.00 | 72 | 1007.5 |
| 20260504100529 | 5 | 275 | 3.2 | 9.7 | 0.00 | 0.00 | 0.00 | 79 | 1007.2 |
| 20260504081539 | 5 | 262 | 3.2 | 9.7 | 0.00 | 0.00 | 0.00 | 75 | 1007.4 |
| 20260504081033 | 5 | 281 | 3.2 | 9.7 | 0.00 | 0.00 | 0.00 | 75 | 1007.5 |
| 20260504080529 | 5 | 263 | 3.2 | 8.0 | 0.00 | 0.00 | 0.00 | 74 | 1007.5 |
| 20260504050530 | 2 | 250 | 1.6 | 6.4 | 0.00 | 0.00 | 0.00 | 68 | 1007.5 |
| 20260504050113 | 2 | 239 | 0.0 | 4.8 | 0.00 | 0.00 | 0.00 | 67 | 1007.5 |
| 20260504045530 | 2 | 0 | 1.6 | 4.8 | 0.00 | 0.00 | 0.00 | 66 | 1007.5 |
| 20260504045029 | 2 | 236 | 1.6 | 4.8 | 0.00 | 0.00 | 0.00 | 66 | 1007.5 |
| 20260504044542 | 2 | 229 | 0.0 | 4.8 | 0.00 | 0.00 | 0.00 | 65 | 1007.5 |
| 20260504044030 | 2 | 229 | 0.0 | 4.8 | 0.00 | 0.00 | 0.00 | 66 | 1007.5 |
| 20260504043534 | 2 | 219 | 1.6 | 6.4 | 0.00 | 0.00 | 0.00 | 65 | 1007.5 |
| 20260504043043 | 2 | 0 | 1.6 | 6.4 | 0.00 | 0.00 | 0.00 | 65 | 1007.6 |
| 20260504042530 | 2 | 238 | 1.6 | 6.4 | 0.00 | 0.00 | 0.00 | 65 | 1007.6 |
| 20260504042029 | 2 | 227 | 1.6 | 6.4 | 0.00 | 0.00 | 0.00 | 65 | 1007.6 |
| 20260504041541 | 2 | 238 | 3.2 | 6.4 | 0.00 | 0.00 | 0.00 | 65 | 1007.5 |
| 20260504041030 | 2 | 254 | 1.6 | 4.8 | 0.00 | 0.00 | 0.00 | 64 | 1007.5 |
| 20260504040529 | 2 | 239 | 0.0 | 3.2 | 0.00 | 0.00 | 0.00 | 65 | 1007.5 |
| 20260504040042 | 3 | 239 | 0.0 | 3.2 | 0.00 | 0.00 | 0.00 | 64 | 1007.5 |
| 20260504035530 | 3 | 239 | 0.0 | 6.4 | 0.00 | 0.00 | 0.00 | 64 | 1007.6 |
| 20260504035030 | 3 | 229 | 0.0 | 6.4 | 0.00 | 0.00 | 0.00 | 64 | 1007.5 |
| 20260504034546 | 3 | 0 | 1.6 | 6.4 | 0.00 | 0.00 | 0.00 | 64 | 1007.5 |
| 20260504034030 | 3 | 263 | 0.0 | 4.8 | 0.00 | 0.00 | 0.00 | 65 | 1007.6 |
| 20260504033537 | 3 | 266 | 1.6 | 4.8 | 0.00 | 0.00 | 0.00 | 65 | 1007.5 |
| 20260504033046 | 2 | 244 | 1.6 | 4.8 | 0.00 | 0.00 | 0.00 | 66 | 1007.5 |
| 20260504032530 | 2 | 256 | 0.0 | 4.8 | 0.00 | 0.00 | 0.00 | 66 | 1007.5 |
| 20260504032029 | 2 | 0 | 1.6 | 4.8 | 0.00 | 0.00 | 0.00 | 66 | 1007.5 |
| 20260504031601 | 2 | 0 | 1.6 | 3.2 | 0.00 | 0.00 | 0.00 | 67 | 1007.5 |
| 20260504031031 | 2 | 272 | 1.6 | 3.2 | 0.00 | 0.00 | 0.00 | 68 | 1007.5 |
| 20260504030529 | 2 | 0 | 0.0 | 3.2 | 0.00 | 0.00 | 0.00 | 67 | 1007.6 |
| 20260504030042 | 2 | 272 | 0.0 | 3.2 | 0.00 | 0.00 | 0.00 | 67 | 1007.5 |
| 20260504025535 | 2 | 0 | 0.0 | 3.2 | 0.00 | 0.00 | 0.00 | 67 | 1007.5 |
| 20260504025029 | 2 | 0 | 0.0 | 3.2 | 0.00 | 0.00 | 0.00 | 67 | 1007.4 |
| 20260504024542 | 2 | 273 | 0.0 | 4.8 | 0.00 | 0.00 | 0.00 | 67 | 1007.5 |
| 20260504024031 | 3 | 0 | 1.6 | 4.8 | 0.00 | 0.00 | 0.00 | 66 | 1007.5 |
| 20260504023530 | 3 | 0 | 0.0 | 4.8 | 0.00 | 0.00 | 0.00 | 65 | 1007.5 |
| 20260504023034 | 3 | 0 | 0.0 | 4.8 | 0.00 | 0.00 | 0.00 | 65 | 1007.7 |
| 20260504022531 | 3 | 0 | 0.0 | 3.2 | 0.00 | 0.00 | 0.00 | 65 | 1007.7 |
| 20260504022030 | 3 | 0 | 0.0 | 3.2 | 0.00 | 0.00 | 0.00 | 65 | 1007.7 |
| 20260504021543 | 3 | 0 | 0.0 | 0.0 | 0.00 | 0.00 | 0.00 | 66 | 1007.7 |
| 20260504021029 | 3 | 0 | 0.0 | 0.0 | 0.00 | 0.00 | 0.00 | 65 | 1007.7 |
| 20260504020529 | 3 | 0 | 0.0 | 1.6 | 0.00 | 0.00 | 0.00 | 65 | 1007.6 |
| 20260504020040 | 3 | 0 | 0.0 | 3.2 | 0.00 | 0.00 | 0.00 | 64 | 1007.5 |
| 20260504015530 | 3 | 0 | 0.0 | 3.2 | 0.00 | 0.25 | 0.00 | 64 | 1007.5 |
| 20260504015031 | 3 | 0 | 0.0 | 3.2 | 0.00 | 0.25 | 0.00 | 65 | 1007.5 |
| 20260504014543 | 3 | 0 | 0.0 | 3.2 | 0.00 | 0.25 | 0.00 | 65 | 1007.5 |
| 20260504014030 | 3 | 0 | 0.0 | 3.2 | 0.00 | 0.25 | 0.00 | 64 | 1007.4 |
| 20260504013529 | 3 | 275 | 0.0 | 3.2 | 0.00 | 0.25 | 0.00 | 64 | 1007.5 |
| 20260504013038 | 3 | 0 | 0.0 | 3.2 | 0.00 | 0.25 | 0.00 | 62 | 1007.4 |
| 20260504012529 | 4 | 0 | 0.0 | 3.2 | 0.00 | 0.25 | 0.00 | 61 | 1007.5 |
| 20260504012029 | 4 | 0 | 0.0 | 1.6 | 0.00 | 0.25 | 0.00 | 60 | 1007.3 |
| 20260504011550 | 4 | 0 | 0.0 | 1.6 | 0.00 | 0.25 | 0.00 | 60 | 1007.3 |
| 20260504011030 | 4 | 0 | 0.0 | 1.6 | 0.00 | 0.25 | 0.00 | 59 | 1007.2 |
| 20260504010532 | 4 | 275 | 0.0 | 1.6 | 0.00 | 0.25 | 0.00 | 59 | 1007.1 |
| 20260504010046 | 4 | 0 | 0.0 | 3.2 | 0.00 | 0.25 | 0.00 | 59 | 1007.2 |
| 20260504005530 | 4 | 0 | 0.0 | 4.8 | 0.00 | 0.25 | 0.00 | 59 | 1007.1 |
| 20260504005030 | 5 | 0 | 0.0 | 4.8 | 0.00 | 0.25 | 0.00 | 60 | 1007.0 |
| 20260504004542 | 5 | 280 | 0.0 | 4.8 | 0.00 | 0.25 | 0.00 | 60 | 1007.0 |
| 20260504004029 | 5 | 269 | 0.0 | 4.8 | 0.00 | 0.25 | 0.00 | 60 | 1006.9 |
| 20260504003530 | 5 | 269 | 1.6 | 4.8 | 0.00 | 0.25 | 0.00 | 59 | 1006.9 |
| 20260504003044 | 5 | 269 | 0.0 | 4.8 | 0.00 | 0.25 | 0.00 | 58 | 1006.8 |
| 20260504002529 | 5 | 270 | 1.6 | 6.4 | 0.00 | 0.25 | 0.00 | 57 | 1006.8 |
| 20260504002029 | 5 | 273 | 0.0 | 8.0 | 0.00 | 0.25 | 0.00 | 55 | 1006.7 |
| 20260504001554 | 5 | 274 | 0.0 | 8.0 | 0.00 | 0.25 | 0.00 | 55 | 1006.6 |
| 20260504001030 | 5 | 269 | 3.2 | 9.7 | 0.00 | 0.25 | 0.00 | 54 | 1006.6 |
| 20260504000530 | 5 | 344 | 1.6 | 9.7 | 0.00 | 0.25 | 0.00 | 54 | 1006.5 |
| 20260504000039 | 6 | 313 | 3.2 | 8.0 | 0.00 | 0.25 | 0.00 | 55 | 1006.5 |
| 20260503235530 | 6 | 291 | 1.6 | 9.7 | 0.00 | 0.25 | 0.00 | 55 | 1006.4 |
| 20260503235030 | 6 | 329 | 3.2 | 9.7 | 0.00 | 0.25 | 0.00 | 53 | 1006.4 |
| 20260503234536 | 6 | 0 | 1.6 | 14.5 | 0.00 | 0.25 | 0.00 | 53 | 1006.3 |
| 20260503234033 | 6 | 259 | 3.2 | 14.5 | 0.00 | 0.25 | 0.00 | 53 | 1006.3 |
| 20260503233530 | 6 | 319 | 4.8 | 12.9 | 0.00 | 0.25 | 0.00 | 52 | 1006.3 |
| 20260503233043 | 6 | 350 | 4.8 | 12.9 | 0.00 | 0.25 | 0.00 | 51 | 1006.2 |
| 20260503232532 | 7 | 296 | 4.8 | 17.7 | 0.00 | 0.25 | 0.00 | 52 | 1006.2 |
| 20260503232029 | 7 | 302 | 4.8 | 19.3 | 0.00 | 0.25 | 0.00 | 51 | 1006.2 |
| 20260503231550 | 7 | 275 | 4.8 | 19.3 | 0.00 | 0.25 | 0.00 | 50 | 1006.2 |
| 20260503231030 | 7 | 306 | 8.0 | 19.3 | 0.00 | 0.25 | 0.00 | 49 | 1006.2 |
| 20260503230531 | 7 | 344 | 6.4 | 17.7 | 0.00 | 0.25 | 0.00 | 49 | 1006.2 |
| 20260503230039 | 7 | 284 | 8.0 | 16.1 | 0.00 | 0.25 | 0.00 | 49 | 1006.1 |
| 20260503225533 | 7 | 289 | 6.4 | 20.9 | 0.00 | 0.25 | 0.00 | 50 | 1006.1 |
| 20260503225029 | 7 | 319 | 6.4 | 20.9 | 0.00 | 0.25 | 0.00 | 49 | 1006.1 |
| 20260503224538 | 8 | 238 | 6.4 | 17.7 | 0.00 | 0.25 | 0.00 | 49 | 1006.1 |
| 20260503224030 | 8 | 320 | 6.4 | 20.9 | 0.00 | 0.25 | 0.00 | 48 | 1006.1 |
| 20260503223529 | 8 | 348 | 8.0 | 20.9 | 0.00 | 0.25 | 0.00 | 49 | 1006.1 |
| 20260503223042 | 8 | 277 | 9.7 | 20.9 | 0.00 | 0.25 | 0.00 | 48 | 1006.0 |
| 20260503222529 | 8 | 306 | 3.2 | 16.1 | 0.00 | 0.25 | 0.00 | 49 | 1005.9 |
| 20260503222029 | 8 | 282 | 3.2 | 17.7 | 0.00 | 0.25 | 0.00 | 50 | 1006.1 |
| 20260503221544 | 7 | 340 | 4.8 | 19.3 | 0.00 | 0.25 | 0.00 | 52 | 1006.0 |
| 20260503221031 | 7 | 283 | 4.8 | 19.3 | 0.00 | 0.25 | 0.00 | 52 | 1006.0 |
| 20260503220533 | 7 | 258 | 8.0 | 19.3 | 0.00 | 0.25 | 0.00 | 50 | 1005.9 |
| 20260503220042 | 7 | 263 | 9.7 | 25.7 | 0.00 | 0.25 | 0.00 | 50 | 1006.0 |
| 20260503215530 | 7 | 256 | 8.0 | 25.7 | 0.00 | 0.25 | 0.00 | 52 | 1006.0 |
| 20260503215029 | 7 | 295 | 11.3 | 25.7 | 0.00 | 0.25 | 0.00 | 51 | 1006.0 |
| 20260503214545 | 7 | 294 | 8.0 | 20.9 | 0.00 | 0.25 | 0.00 | 50 | 1005.9 |
| 20260503214029 | 7 | 360 | 6.4 | 22.5 | 0.00 | 0.25 | 0.00 | 52 | 1005.8 |
| 20260503213529 | 7 | 297 | 11.3 | 22.5 | 0.00 | 0.25 | 0.00 | 50 | 1005.8 |
| 20260503213102 | 7 | 342 | 6.4 | 17.7 | 0.00 | 0.25 | 0.00 | 51 | 1005.8 |
| 20260503212529 | 7 | 344 | 3.2 | 22.5 | 0.00 | 0.25 | 0.00 | 52 | 1005.8 |
| 20260503212029 | 7 | 246 | 9.7 | 22.5 | 0.00 | 0.25 | 0.00 | 50 | 1005.6 |
| 20260503211614 | 7 | 296 | 9.7 | 29.0 | 0.00 | 0.25 | 0.00 | 49 | 1005.8 |
| 20260503211032 | 7 | 302 | 11.3 | 29.0 | 0.00 | 0.25 | 0.00 | 48 | 1005.7 |
| 20260503210532 | 7 | 345 | 11.3 | 30.6 | 0.00 | 0.25 | 0.00 | 48 | 1005.8 |
| 20260503210044 | 7 | 338 | 9.7 | 30.6 | 0.00 | 0.25 | 0.00 | 49 | 1005.7 |
| 20260503205530 | 7 | 360 | 9.7 | 25.7 | 0.00 | 0.30 | 0.00 | 51 | 1005.5 |
| 20260503205034 | 7 | 286 | 9.7 | 27.4 | 0.00 | 0.30 | 0.00 | 48 | 1005.5 |
| 20260503204557 | 7 | 350 | 14.5 | 27.4 | 0.00 | 0.30 | 0.00 | 47 | 1005.5 |
| 20260503204029 | 7 | 302 | 8.0 | 27.4 | 0.00 | 0.30 | 0.00 | 47 | 1005.3 |
| 20260503203530 | 7 | 289 | 8.0 | 27.4 | 0.00 | 0.30 | 0.00 | 47 | 1005.3 |
| 20260503203040 | 7 | 329 | 4.8 | 37.0 | 0.00 | 0.30 | 0.00 | 48 | 1005.3 |
| 20260503202529 | 7 | 309 | 12.9 | 37.0 | 0.00 | 0.30 | 0.00 | 46 | 1005.3 |
| 20260503202029 | 7 | 255 | 11.3 | 37.0 | 0.00 | 0.30 | 0.00 | 45 | 1005.2 |
| 20260503201545 | 7 | 278 | 11.3 | 24.1 | 0.00 | 0.30 | 0.00 | 46 | 1005.3 |
| 20260503201030 | 7 | 290 | 11.3 | 33.8 | 0.00 | 0.30 | 0.00 | 47 | 1005.2 |
| 20260503200527 | 7 | 284 | 12.9 | 33.8 | 0.00 | 0.30 | 0.00 | 46 | 1005.2 |
| 20260503200034 | 7 | 329 | 11.3 | 27.4 | 0.00 | 0.30 | 0.00 | 46 | 1005.1 |
| 20260503195530 | 7 | 341 | 14.5 | 27.4 | 0.00 | 0.38 | 0.00 | 45 | 1005.2 |
| 20260503195029 | 7 | 334 | 8.0 | 27.4 | 0.00 | 0.38 | 0.00 | 48 | 1005.2 |
| 20260503194542 | 8 | 261 | 9.7 | 27.4 | 0.00 | 0.38 | 0.00 | 45 | 1005.1 |
| 20260503194030 | 8 | 251 | 9.7 | 27.4 | 0.00 | 0.38 | 0.00 | 44 | 1005.1 |
| 20260503193532 | 8 | 292 | 6.4 | 25.7 | 0.00 | 0.38 | 0.00 | 46 | 1005.2 |
| 20260503193040 | 8 | 306 | 8.0 | 25.7 | 0.00 | 0.38 | 0.00 | 46 | 1005.2 |
| 20260503192529 | 8 | 342 | 11.3 | 27.4 | 0.00 | 0.38 | 0.00 | 45 | 1005.2 |
| 20260503192029 | 8 | 38 | 11.3 | 27.4 | 0.00 | 0.38 | 0.00 | 48 | 1005.3 |
| 20260503191555 | 7 | 298 | 11.3 | 27.4 | 0.00 | 0.38 | 0.00 | 47 | 1005.3 |
| 20260503191030 | 7 | 12 | 8.0 | 35.4 | 0.00 | 0.38 | 0.00 | 48 | 1005.5 |
| 20260503190530 | 7 | 255 | 16.1 | 35.4 | 0.00 | 0.38 | 0.00 | 46 | 1005.4 |
| 20260503190040 | 7 | 275 | 9.7 | 25.7 | 0.00 | 0.38 | 0.00 | 48 | 1005.4 |
| 20260503185531 | 7 | 315 | 11.3 | 25.7 | 0.00 | 0.41 | 0.00 | 47 | 1005.3 |
| 20260503185029 | 8 | 237 | 11.3 | 24.1 | 0.00 | 0.41 | 0.00 | 45 | 1005.3 |
| 20260503184544 | 8 | 304 | 8.0 | 29.0 | 0.00 | 0.41 | 0.00 | 48 | 1005.3 |
| 20260503184030 | 8 | 344 | 9.7 | 29.0 | 0.00 | 0.41 | 0.00 | 48 | 1005.3 |
| 20260503183529 | 8 | 282 | 9.7 | 32.2 | 0.00 | 0.41 | 0.00 | 48 | 1005.2 |
| 20260503183046 | 8 | 325 | 11.3 | 32.2 | 0.00 | 0.41 | 0.00 | 48 | 1005.3 |
| 20260503182529 | 8 | 279 | 8.0 | 30.6 | 0.00 | 0.41 | 0.00 | 48 | 1005.2 |
| 20260503182030 | 8 | 331 | 14.5 | 30.6 | 0.00 | 0.41 | 0.00 | 46 | 1005.2 |
| 20260503181551 | 8 | 289 | 14.5 | 27.4 | 0.00 | 0.41 | 0.00 | 45 | 1005.2 |
| 20260503181033 | 8 | 304 | 11.3 | 20.9 | 0.00 | 0.41 | 0.00 | 47 | 1005.1 |
| 20260503180530 | 8 | 271 | 8.0 | 20.9 | 0.00 | 0.41 | 0.00 | 47 | 1005.0 |
| 20260503180042 | 8 | 352 | 9.7 | 27.4 | 0.00 | 0.41 | 0.00 | 48 | 1004.9 |
| 20260503175530 | 8 | 352 | 8.0 | 27.4 | 0.00 | 0.43 | 0.00 | 47 | 1005.1 |
| 20260503175029 | 8 | 277 | 9.7 | 25.7 | 0.00 | 0.43 | 0.00 | 47 | 1005.1 |
| 20260503174551 | 8 | 10 | 11.3 | 22.5 | 0.00 | 0.43 | 0.00 | 48 | 1005.2 |
| 20260503174029 | 8 | 319 | 11.3 | 32.2 | 0.00 | 0.43 | 0.00 | 52 | 1005.2 |